owner,sensor,date,latitude,longitude,air_pressure(mBar),qcFlag 
TABS,ioos:station:wmo:42045:1,2003-02-01T00:10:00Z,26.2168,-96.4998,998.24,11111222 
TABS,ioos:station:wmo:42045:1,2003-02-01T00:40:00Z,26.2168,-96.4998,996.9,11111222 
TABS,ioos:station:wmo:42045:1,2003-02-01T01:10:00Z,26.2168,-96.4998,996.9,11111222 
TABS,ioos:station:wmo:42045:1,2003-02-01T01:40:00Z,26.2168,-96.4998,997.29,11111222 
TABS,ioos:station:wmo:42045:1,2003-02-01T02:10:00Z,26.2168,-96.4998,998.75,11111222 
TABS,ioos:station:wmo:42045:1,2003-02-01T02:40:00Z,26.2168,-96.4998,999.25,11111222 
TABS,ioos:station:wmo:42045:1,2003-02-01T03:10:00Z,26.2168,-96.4998,999.57,11111222 
TABS,ioos:station:wmo:42045:1,2003-02-01T03:40:00Z,26.2168,-96.4998,1000.78,11111222 
TABS,ioos:station:wmo:42045:1,2003-02-01T04:10:00Z,26.2168,-96.4998,1001.54,11111222 
TABS,ioos:station:wmo:42045:1,2003-02-01T04:40:00Z,26.2168,-96.4998,1002.3,11111222 
TABS,ioos:station:wmo:42045:1,2003-02-01T05:10:00Z,26.2168,-96.4998,1002.81,11111222 
TABS,ioos:station:wmo:42045:1,2003-02-01T05:40:00Z,26.2168,-96.4998,1003.44,11111222 
TABS,ioos:station:wmo:42045:1,2003-02-01T06:10:00Z,26.2168,-96.4998,1003.51,11111222 
TABS,ioos:station:wmo:42045:1,2003-02-01T07:10:00Z,26.2168,-96.4998,1004.46,11111222 
TABS,ioos:station:wmo:42045:1,2003-02-01T07:40:00Z,26.2168,-96.4998,1005.09,11111222 
TABS,ioos:station:wmo:42045:1,2003-02-01T08:10:00Z,26.2168,-96.4998,1005.92,11111222 
TABS,ioos:station:wmo:42045:1,2003-02-01T08:40:00Z,26.2168,-96.4998,1006.62,11111222 
TABS,ioos:station:wmo:42045:1,2003-02-01T09:10:00Z,26.2168,-96.4998,1007.95,11111222 
TABS,ioos:station:wmo:42045:1,2003-02-01T10:10:00Z,26.2168,-96.4998,1008.08,11111222 
TABS,ioos:station:wmo:42045:1,2003-02-01T10:40:00Z,26.2168,-96.4998,1008.52,11111222 
TABS,ioos:station:wmo:42045:1,2003-02-01T11:10:00Z,26.2168,-96.4998,1008.77,11111222 
TABS,ioos:station:wmo:42045:1,2003-02-01T11:40:00Z,26.2168,-96.4998,1008.84,11111222 
TABS,ioos:station:wmo:42045:1,2003-02-01T12:10:00Z,26.2168,-96.4998,1010.23,11111222 
TABS,ioos:station:wmo:42045:1,2003-02-01T12:40:00Z,26.2168,-96.4998,1011.06,11111222 
TABS,ioos:station:wmo:42045:1,2003-02-01T13:10:00Z,26.2168,-96.4998,1010.81,11111222 
TABS,ioos:station:wmo:42045:1,2003-02-01T13:40:00Z,26.2168,-96.4998,1012.46,11111222 
TABS,ioos:station:wmo:42045:1,2003-02-01T14:10:00Z,26.2168,-96.4998,1016.39,11111222 
TABS,ioos:station:wmo:42045:1,2003-02-01T14:40:00Z,26.2168,-96.4998,1027.44,11111222 
TABS,ioos:station:wmo:42045:1,2003-02-01T15:10:00Z,26.2168,-96.4998,1029.02,11111222 
TABS,ioos:station:wmo:42045:1,2003-02-01T15:40:00Z,26.2168,-96.4998,1038.29,11111222 
TABS,ioos:station:wmo:42045:1,2003-02-01T16:10:00Z,26.2168,-96.4998,1039.24,11111222 
TABS,ioos:station:wmo:42045:1,2003-02-01T16:40:00Z,26.2168,-96.4998,1037.21,11111222 
TABS,ioos:station:wmo:42045:1,2003-02-01T17:10:00Z,26.2168,-96.4998,1040.26,11111222 
TABS,ioos:station:wmo:42045:1,2003-02-01T17:40:00Z,26.2168,-96.4998,1045.21,11111222 
TABS,ioos:station:wmo:42045:1,2003-02-01T18:10:00Z,26.2168,-96.4998,1028.77,11111222 
TABS,ioos:station:wmo:42045:1,2003-02-01T18:40:00Z,26.2168,-96.4998,1029.4,11111222 
TABS,ioos:station:wmo:42045:1,2003-02-01T19:10:00Z,26.2168,-96.4998,1026.67,11111222 
TABS,ioos:station:wmo:42045:1,2003-02-01T19:40:00Z,26.2168,-96.4998,1025.09,11111222 
TABS,ioos:station:wmo:42045:1,2003-02-01T20:10:00Z,26.2168,-96.4998,1022.04,11111222 
TABS,ioos:station:wmo:42045:1,2003-02-01T20:40:00Z,26.2168,-96.4998,1021.72,11111222 
TABS,ioos:station:wmo:42045:1,2003-02-01T21:10:00Z,26.2168,-96.4998,1021.09,11111222 
TABS,ioos:station:wmo:42045:1,2003-02-01T21:40:00Z,26.2168,-96.4998,1017.85,11111222 
TABS,ioos:station:wmo:42045:1,2003-02-01T22:10:00Z,26.2168,-96.4998,1015.25,11111222 
TABS,ioos:station:wmo:42045:1,2003-02-01T22:40:00Z,26.2168,-96.4998,1011.57,11111222 
TABS,ioos:station:wmo:42045:1,2003-02-01T23:10:00Z,26.2168,-96.4998,1006.36,11111222 
TABS,ioos:station:wmo:42045:1,2003-02-01T23:40:00Z,26.2168,-96.4998,990.18,11111222 
TABS,ioos:station:wmo:42045:1,2003-02-02T00:10:00Z,26.2168,-96.4998,1002.24,11111222 
TABS,ioos:station:wmo:42045:1,2003-02-02T00:40:00Z,26.2168,-96.4998,998.43,11111222 
TABS,ioos:station:wmo:42045:1,2003-02-02T01:10:00Z,26.2168,-96.4998,997.92,11111222 
TABS,ioos:station:wmo:42045:1,2003-02-02T01:40:00Z,26.2168,-96.4998,998.43,11111222 
TABS,ioos:station:wmo:42045:1,2003-02-02T02:10:00Z,26.2168,-96.4998,999.25,11111222 
TABS,ioos:station:wmo:42045:1,2003-02-02T02:40:00Z,26.2168,-96.4998,999.95,11111222 
TABS,ioos:station:wmo:42045:1,2003-02-02T03:10:00Z,26.2168,-96.4998,1000.71,11111222 
TABS,ioos:station:wmo:42045:1,2003-02-02T03:40:00Z,26.2168,-96.4998,1001.73,11111222 
TABS,ioos:station:wmo:42045:1,2003-02-02T04:10:00Z,26.2168,-96.4998,1002.68,11111222 
TABS,ioos:station:wmo:42045:1,2003-02-02T04:40:00Z,26.2168,-96.4998,1003.51,11111222 
TABS,ioos:station:wmo:42045:1,2003-02-02T05:10:00Z,26.2168,-96.4998,1004.52,11111222 
TABS,ioos:station:wmo:42045:1,2003-02-02T05:40:00Z,26.2168,-96.4998,1005.47,11111222 
TABS,ioos:station:wmo:42045:1,2003-02-02T06:10:00Z,26.2168,-96.4998,1006.24,11111222 
TABS,ioos:station:wmo:42045:1,2003-02-02T06:40:00Z,26.2168,-96.4998,1007.0,11111222 
TABS,ioos:station:wmo:42045:1,2003-02-02T07:10:00Z,26.2168,-96.4998,1007.7,11111222 
TABS,ioos:station:wmo:42045:1,2003-02-02T07:40:00Z,26.2168,-96.4998,1008.46,11111222 
TABS,ioos:station:wmo:42045:1,2003-02-02T08:10:00Z,26.2168,-96.4998,1008.33,11111222 
TABS,ioos:station:wmo:42045:1,2003-02-02T08:40:00Z,26.2168,-96.4998,1008.52,11111222 
TABS,ioos:station:wmo:42045:1,2003-02-02T09:10:00Z,26.2168,-96.4998,1008.27,11111222 
TABS,ioos:station:wmo:42045:1,2003-02-02T09:40:00Z,26.2168,-96.4998,1008.01,11111222 
TABS,ioos:station:wmo:42045:1,2003-02-02T10:10:00Z,26.2168,-96.4998,1008.39,11111222 
TABS,ioos:station:wmo:42045:1,2003-02-02T10:40:00Z,26.2168,-96.4998,1008.52,11111222 
TABS,ioos:station:wmo:42045:1,2003-02-02T11:10:00Z,26.2168,-96.4998,1008.84,11111222 
TABS,ioos:station:wmo:42045:1,2003-02-02T11:40:00Z,26.2168,-96.4998,1009.28,11111222 
TABS,ioos:station:wmo:42045:1,2003-02-02T12:10:00Z,26.2168,-96.4998,1009.73,11111222 
TABS,ioos:station:wmo:42045:1,2003-02-02T12:40:00Z,26.2168,-96.4998,1010.23,11111222 
TABS,ioos:station:wmo:42045:1,2003-02-02T13:10:00Z,26.2168,-96.4998,1010.87,11111222 
TABS,ioos:station:wmo:42045:1,2003-02-02T13:40:00Z,26.2168,-96.4998,1014.61,11111222 
TABS,ioos:station:wmo:42045:1,2003-02-02T14:10:00Z,26.2168,-96.4998,1018.11,11111222 
TABS,ioos:station:wmo:42045:1,2003-02-02T14:40:00Z,26.2168,-96.4998,1021.22,11111222 
TABS,ioos:station:wmo:42045:1,2003-02-02T15:10:00Z,26.2168,-96.4998,1024.01,11111222 
TABS,ioos:station:wmo:42045:1,2003-02-02T15:40:00Z,26.2168,-96.4998,1034.04,11111222 
TABS,ioos:station:wmo:42045:1,2003-02-02T16:10:00Z,26.2168,-96.4998,1033.02,11111222 
TABS,ioos:station:wmo:42045:1,2003-02-02T16:40:00Z,26.2168,-96.4998,1030.23,11111222 
TABS,ioos:station:wmo:42045:1,2003-02-02T17:10:00Z,26.2168,-96.4998,1027.94,11111222 
TABS,ioos:station:wmo:42045:1,2003-02-02T17:40:00Z,26.2168,-96.4998,1021.22,11111222 
TABS,ioos:station:wmo:42045:1,2003-02-02T18:10:00Z,26.2168,-96.4998,1020.77,11111222 
TABS,ioos:station:wmo:42045:1,2003-02-02T18:40:00Z,26.2168,-96.4998,1019.57,11111222 
TABS,ioos:station:wmo:42045:1,2003-02-02T19:10:00Z,26.2168,-96.4998,1020.01,11111222 
TABS,ioos:station:wmo:42045:1,2003-02-02T19:40:00Z,26.2168,-96.4998,1021.91,11111222 
TABS,ioos:station:wmo:42045:1,2003-02-02T20:10:00Z,26.2168,-96.4998,1024.26,11111222 
TABS,ioos:station:wmo:42045:1,2003-02-02T20:40:00Z,26.2168,-96.4998,1024.26,11111222 
TABS,ioos:station:wmo:42045:1,2003-02-02T21:10:00Z,26.2168,-96.4998,1025.02,11111222 
TABS,ioos:station:wmo:42045:1,2003-02-02T21:40:00Z,26.2168,-96.4998,1022.8,11111222 
TABS,ioos:station:wmo:42045:1,2003-02-02T22:10:00Z,26.2168,-96.4998,1025.91,11111222 
TABS,ioos:station:wmo:42045:1,2003-02-02T22:40:00Z,26.2168,-96.4998,1024.71,11111222 
TABS,ioos:station:wmo:42045:1,2003-02-02T23:10:00Z,26.2168,-96.4998,1014.74,11111222 
TABS,ioos:station:wmo:42045:1,2003-02-02T23:40:00Z,26.2168,-96.4998,1015.95,11111222 
TABS,ioos:station:wmo:42045:1,2003-02-03T00:10:00Z,26.2168,-96.4998,1007.5,11111222 
TABS,ioos:station:wmo:42045:1,2003-02-03T00:40:00Z,26.2168,-96.4998,1003.44,11111222 
TABS,ioos:station:wmo:42045:1,2003-02-03T01:10:00Z,26.2168,-96.4998,1003.06,11111222 
TABS,ioos:station:wmo:42045:1,2003-02-03T01:40:00Z,26.2168,-96.4998,1002.74,11111222 
TABS,ioos:station:wmo:42045:1,2003-02-03T02:10:00Z,26.2168,-96.4998,1003.12,11111222 
TABS,ioos:station:wmo:42045:1,2003-02-03T02:40:00Z,26.2168,-96.4998,1003.32,11111222 
TABS,ioos:station:wmo:42045:1,2003-02-03T03:10:00Z,26.2168,-96.4998,1004.01,11111222 
TABS,ioos:station:wmo:42045:1,2003-02-03T03:40:00Z,26.2168,-96.4998,1004.65,11111222 
TABS,ioos:station:wmo:42045:1,2003-02-03T04:10:00Z,26.2168,-96.4998,1005.03,11111222 
TABS,ioos:station:wmo:42045:1,2003-02-03T04:40:00Z,26.2168,-96.4998,1005.6,11111222 
TABS,ioos:station:wmo:42045:1,2003-02-03T05:10:00Z,26.2168,-96.4998,1005.92,11111222 
TABS,ioos:station:wmo:42045:1,2003-02-03T05:40:00Z,26.2168,-96.4998,1006.49,11111222 
TABS,ioos:station:wmo:42045:1,2003-02-03T06:10:00Z,26.2168,-96.4998,1006.81,11111222 
TABS,ioos:station:wmo:42045:1,2003-02-03T06:40:00Z,26.2168,-96.4998,1006.87,11111222 
TABS,ioos:station:wmo:42045:1,2003-02-03T07:10:00Z,26.2168,-96.4998,1007.0,11111222 
TABS,ioos:station:wmo:42045:1,2003-02-03T07:40:00Z,26.2168,-96.4998,1007.25,11111222 
TABS,ioos:station:wmo:42045:1,2003-02-03T08:10:00Z,26.2168,-96.4998,1008.01,11111222 
TABS,ioos:station:wmo:42045:1,2003-02-03T08:40:00Z,26.2168,-96.4998,1007.95,11111222 
TABS,ioos:station:wmo:42045:1,2003-02-03T09:10:00Z,26.2168,-96.4998,1007.82,11111222 
TABS,ioos:station:wmo:42045:1,2003-02-03T09:40:00Z,26.2168,-96.4998,1008.01,11111222 
TABS,ioos:station:wmo:42045:1,2003-02-03T10:10:00Z,26.2168,-96.4998,1007.89,11111222 
TABS,ioos:station:wmo:42045:1,2003-02-03T10:40:00Z,26.2168,-96.4998,1007.89,11111222 
TABS,ioos:station:wmo:42045:1,2003-02-03T11:10:00Z,26.2168,-96.4998,1007.76,11111222 
TABS,ioos:station:wmo:42045:1,2003-02-03T11:40:00Z,26.2168,-96.4998,1006.11,11111222 
TABS,ioos:station:wmo:42045:1,2003-02-03T12:10:00Z,26.2168,-96.4998,1007.0,11111222 
TABS,ioos:station:wmo:42045:1,2003-02-03T12:40:00Z,26.2168,-96.4998,1007.7,11111222 
TABS,ioos:station:wmo:42045:1,2003-02-03T13:10:00Z,26.2168,-96.4998,1008.77,11111222 
TABS,ioos:station:wmo:42045:1,2003-02-03T13:40:00Z,26.2168,-96.4998,1009.6,11111222 
TABS,ioos:station:wmo:42045:1,2003-02-03T14:10:00Z,26.2168,-96.4998,1010.93,11111222 
TABS,ioos:station:wmo:42045:1,2003-02-03T14:40:00Z,26.2168,-96.4998,1019.95,11111222 
TABS,ioos:station:wmo:42045:1,2003-02-03T15:10:00Z,26.2168,-96.4998,1032.45,11111222 
TABS,ioos:station:wmo:42045:1,2003-02-03T15:40:00Z,26.2168,-96.4998,1024.52,11111222 
TABS,ioos:station:wmo:42045:1,2003-02-03T16:10:00Z,26.2168,-96.4998,1015.82,11111222 
TABS,ioos:station:wmo:42045:1,2003-02-03T16:40:00Z,26.2168,-96.4998,1007.82,11111222 
TABS,ioos:station:wmo:42045:1,2003-02-03T17:10:00Z,26.2168,-96.4998,1008.2,11111222 
TABS,ioos:station:wmo:42045:1,2003-02-03T17:40:00Z,26.2168,-96.4998,1005.79,11111222 
TABS,ioos:station:wmo:42045:1,2003-02-03T18:10:00Z,26.2168,-96.4998,1003.76,11111222 
TABS,ioos:station:wmo:42045:1,2003-02-03T18:40:00Z,26.2168,-96.4998,1003.25,11111222 
TABS,ioos:station:wmo:42045:1,2003-02-03T19:10:00Z,26.2168,-96.4998,1000.52,11111222 
TABS,ioos:station:wmo:42045:1,2003-02-03T19:40:00Z,26.2168,-96.4998,999.7,11111222 
TABS,ioos:station:wmo:42045:1,2003-02-03T20:10:00Z,26.2168,-96.4998,1001.47,11111222 
TABS,ioos:station:wmo:42045:1,2003-02-03T20:40:00Z,26.2168,-96.4998,1000.78,11111222 
TABS,ioos:station:wmo:42045:1,2003-02-03T21:10:00Z,26.2168,-96.4998,1001.73,11111222 
TABS,ioos:station:wmo:42045:1,2003-02-03T21:40:00Z,26.2168,-96.4998,1002.43,11111222 
TABS,ioos:station:wmo:42045:1,2003-02-03T22:10:00Z,26.2168,-96.4998,1004.01,11111222 
TABS,ioos:station:wmo:42045:1,2003-02-03T22:40:00Z,26.2168,-96.4998,1006.49,11111222 
TABS,ioos:station:wmo:42045:1,2003-02-03T23:10:00Z,26.2168,-96.4998,1003.12,11111222 
TABS,ioos:station:wmo:42045:1,2003-02-03T23:40:00Z,26.2168,-96.4998,1000.08,11111222 
TABS,ioos:station:wmo:42045:1,2003-02-04T00:10:00Z,26.2168,-96.4998,992.71,11111222 
TABS,ioos:station:wmo:42045:1,2003-02-04T00:40:00Z,26.2168,-96.4998,989.1,11111222 
TABS,ioos:station:wmo:42045:1,2003-02-04T01:10:00Z,26.2168,-96.4998,988.91,11111222 
TABS,ioos:station:wmo:42045:1,2003-02-04T01:40:00Z,26.2168,-96.4998,989.03,11111222 
TABS,ioos:station:wmo:42045:1,2003-02-04T02:10:00Z,26.2168,-96.4998,989.29,11111222 
TABS,ioos:station:wmo:42045:1,2003-02-04T02:40:00Z,26.2168,-96.4998,990.3,11111222 
TABS,ioos:station:wmo:42045:1,2003-02-04T03:10:00Z,26.2168,-96.4998,991.19,11111222 
TABS,ioos:station:wmo:42045:1,2003-02-04T03:40:00Z,26.2168,-96.4998,991.95,11111222 
TABS,ioos:station:wmo:42045:1,2003-02-04T04:10:00Z,26.2168,-96.4998,992.33,11111222 
TABS,ioos:station:wmo:42045:1,2003-02-04T04:40:00Z,26.2168,-96.4998,992.84,11111222 
TABS,ioos:station:wmo:42045:1,2003-02-04T05:10:00Z,26.2168,-96.4998,993.41,11111222 
TABS,ioos:station:wmo:42045:1,2003-02-04T05:40:00Z,26.2168,-96.4998,994.49,11111222 
TABS,ioos:station:wmo:42045:1,2003-02-04T06:10:00Z,26.2168,-96.4998,995.57,11111222 
TABS,ioos:station:wmo:42045:1,2003-02-04T06:40:00Z,26.2168,-96.4998,996.4,11111222 
TABS,ioos:station:wmo:42045:1,2003-02-04T07:10:00Z,26.2168,-96.4998,997.16,11111222 
TABS,ioos:station:wmo:42045:1,2003-02-04T07:40:00Z,26.2168,-96.4998,996.52,11111222 
TABS,ioos:station:wmo:42045:1,2003-02-04T08:10:00Z,26.2168,-96.4998,997.6,11111222 
TABS,ioos:station:wmo:42045:1,2003-02-04T08:40:00Z,26.2168,-96.4998,997.35,11111222 
TABS,ioos:station:wmo:42045:1,2003-02-04T09:10:00Z,26.2168,-96.4998,996.59,11111222 
TABS,ioos:station:wmo:42045:1,2003-02-04T09:40:00Z,26.2168,-96.4998,996.21,11111222 
TABS,ioos:station:wmo:42045:1,2003-02-04T10:10:00Z,26.2168,-96.4998,996.27,11111222 
TABS,ioos:station:wmo:42045:1,2003-02-04T10:40:00Z,26.2168,-96.4998,996.33,11111222 
TABS,ioos:station:wmo:42045:1,2003-02-04T11:10:00Z,26.2168,-96.4998,996.52,11111222 
TABS,ioos:station:wmo:42045:1,2003-02-04T11:40:00Z,26.2168,-96.4998,996.78,11111222 
TABS,ioos:station:wmo:42045:1,2003-02-04T12:10:00Z,26.2168,-96.4998,996.65,11111222 
TABS,ioos:station:wmo:42045:1,2003-02-04T12:40:00Z,26.2168,-96.4998,996.46,11111222 
TABS,ioos:station:wmo:42045:1,2003-02-04T13:10:00Z,26.2168,-96.4998,996.33,11111222 
TABS,ioos:station:wmo:42045:1,2003-02-04T13:40:00Z,26.2168,-96.4998,1000.01,11111222 
TABS,ioos:station:wmo:42045:1,2003-02-04T14:10:00Z,26.2168,-96.4998,1001.03,11111222 
TABS,ioos:station:wmo:42045:1,2003-02-04T14:40:00Z,26.2168,-96.4998,1000.59,11111222 
TABS,ioos:station:wmo:42045:1,2003-02-04T15:10:00Z,26.2168,-96.4998,1001.47,11111222 
TABS,ioos:station:wmo:42045:1,2003-02-04T15:40:00Z,26.2168,-96.4998,1003.51,11111222 
TABS,ioos:station:wmo:42045:1,2003-02-04T16:10:00Z,26.2168,-96.4998,1010.23,11111222 
TABS,ioos:station:wmo:42045:1,2003-02-04T16:40:00Z,26.2168,-96.4998,1024.2,11111222 
TABS,ioos:station:wmo:42045:1,2003-02-04T17:10:00Z,26.2168,-96.4998,1028.58,11111222 
TABS,ioos:station:wmo:42045:1,2003-02-04T17:40:00Z,26.2168,-96.4998,1026.67,11111222 
TABS,ioos:station:wmo:42045:1,2003-02-04T18:10:00Z,26.2168,-96.4998,1029.59,11111222 
TABS,ioos:station:wmo:42045:1,2003-02-04T18:40:00Z,26.2168,-96.4998,1021.03,11111222 
TABS,ioos:station:wmo:42045:1,2003-02-04T19:10:00Z,26.2168,-96.4998,1018.8,11111222 
TABS,ioos:station:wmo:42045:1,2003-02-04T19:40:00Z,26.2168,-96.4998,1016.84,11111222 
TABS,ioos:station:wmo:42045:1,2003-02-04T20:10:00Z,26.2168,-96.4998,1017.47,11111222 
TABS,ioos:station:wmo:42045:1,2003-02-04T20:40:00Z,26.2168,-96.4998,1023.06,11111222 
TABS,ioos:station:wmo:42045:1,2003-02-04T21:10:00Z,26.2168,-96.4998,1020.58,11111222 
TABS,ioos:station:wmo:42045:1,2003-02-04T21:40:00Z,26.2168,-96.4998,1034.29,11111222 
TABS,ioos:station:wmo:42045:1,2003-02-04T22:10:00Z,26.2168,-96.4998,1022.74,11111222 
TABS,ioos:station:wmo:42045:1,2003-02-04T22:40:00Z,26.2168,-96.4998,1016.84,11111222 
TABS,ioos:station:wmo:42045:1,2003-02-04T23:10:00Z,26.2168,-96.4998,1015.82,11111222 
TABS,ioos:station:wmo:42045:1,2003-02-04T23:40:00Z,26.2168,-96.4998,1007.76,11111222 
TABS,ioos:station:wmo:42045:1,2003-02-05T00:10:00Z,26.2168,-96.4998,1000.27,11111222 
TABS,ioos:station:wmo:42045:1,2003-02-05T00:40:00Z,26.2168,-96.4998,998.49,11111222 
TABS,ioos:station:wmo:42045:1,2003-02-05T01:10:00Z,26.2168,-96.4998,998.87,11111222 
TABS,ioos:station:wmo:42045:1,2003-02-05T01:40:00Z,26.2168,-96.4998,1000.14,11111222 
TABS,ioos:station:wmo:42045:1,2003-02-05T02:10:00Z,26.2168,-96.4998,1001.16,11111222 
TABS,ioos:station:wmo:42045:1,2003-02-05T02:40:00Z,26.2168,-96.4998,1002.3,11111222 
TABS,ioos:station:wmo:42045:1,2003-02-05T03:10:00Z,26.2168,-96.4998,1003.7,11111222 
TABS,ioos:station:wmo:42045:1,2003-02-05T03:40:00Z,26.2168,-96.4998,1004.9,11111222 
TABS,ioos:station:wmo:42045:1,2003-02-05T04:10:00Z,26.2168,-96.4998,1006.04,11111222 
TABS,ioos:station:wmo:42045:1,2003-02-05T04:40:00Z,26.2168,-96.4998,1006.93,11111222 
TABS,ioos:station:wmo:42045:1,2003-02-05T05:10:00Z,26.2168,-96.4998,1008.01,11111222 
TABS,ioos:station:wmo:42045:1,2003-02-05T05:40:00Z,26.2168,-96.4998,1009.22,11111222 
TABS,ioos:station:wmo:42045:1,2003-02-05T06:10:00Z,26.2168,-96.4998,1010.3,11111222 
TABS,ioos:station:wmo:42045:1,2003-02-05T06:40:00Z,26.2168,-96.4998,1010.93,11111222 
TABS,ioos:station:wmo:42045:1,2003-02-05T07:10:00Z,26.2168,-96.4998,1011.76,11111222 
TABS,ioos:station:wmo:42045:1,2003-02-05T07:40:00Z,26.2168,-96.4998,1012.46,11111222 
TABS,ioos:station:wmo:42045:1,2003-02-05T08:10:00Z,26.2168,-96.4998,1013.34,11111222 
TABS,ioos:station:wmo:42045:1,2003-02-05T08:40:00Z,26.2168,-96.4998,1013.92,11111222 
TABS,ioos:station:wmo:42045:1,2003-02-05T09:10:00Z,26.2168,-96.4998,1014.3,11111222 
TABS,ioos:station:wmo:42045:1,2003-02-05T09:40:00Z,26.2168,-96.4998,1014.93,11111222 
TABS,ioos:station:wmo:42045:1,2003-02-05T10:10:00Z,26.2168,-96.4998,1015.0,11111222 
TABS,ioos:station:wmo:42045:1,2003-02-05T10:40:00Z,26.2168,-96.4998,1015.19,11111222 
TABS,ioos:station:wmo:42045:1,2003-02-05T11:10:00Z,26.2168,-96.4998,1015.82,11111222 
TABS,ioos:station:wmo:42045:1,2003-02-05T11:40:00Z,26.2168,-96.4998,1016.07,11111222 
TABS,ioos:station:wmo:42045:1,2003-02-05T12:10:00Z,26.2168,-96.4998,1016.01,11111222 
TABS,ioos:station:wmo:42045:1,2003-02-05T12:40:00Z,26.2168,-96.4998,1016.2,11111222 
TABS,ioos:station:wmo:42045:1,2003-02-05T13:10:00Z,26.2168,-96.4998,1016.46,11111222 
TABS,ioos:station:wmo:42045:1,2003-02-05T13:40:00Z,26.2168,-96.4998,1017.15,11111222 
TABS,ioos:station:wmo:42045:1,2003-02-05T14:10:00Z,26.2168,-96.4998,1018.99,11111222 
TABS,ioos:station:wmo:42045:1,2003-02-05T14:40:00Z,26.2168,-96.4998,1024.39,11111222 
TABS,ioos:station:wmo:42045:1,2003-02-05T15:10:00Z,26.2168,-96.4998,1029.59,11111222 
TABS,ioos:station:wmo:42045:1,2003-02-05T15:40:00Z,26.2168,-96.4998,1028.96,11111222 
TABS,ioos:station:wmo:42045:1,2003-02-05T16:10:00Z,26.2168,-96.4998,1032.32,11111222 
TABS,ioos:station:wmo:42045:1,2003-02-05T16:40:00Z,26.2168,-96.4998,1032.45,11111222 
TABS,ioos:station:wmo:42045:1,2003-02-05T17:10:00Z,26.2168,-96.4998,1033.21,11111222 
TABS,ioos:station:wmo:42045:1,2003-02-05T17:40:00Z,26.2168,-96.4998,1032.71,11111222 
TABS,ioos:station:wmo:42045:1,2003-02-05T18:10:00Z,26.2168,-96.4998,1034.86,11111222 
TABS,ioos:station:wmo:42045:1,2003-02-05T18:40:00Z,26.2168,-96.4998,1029.21,11111222 
TABS,ioos:station:wmo:42045:1,2003-02-05T19:10:00Z,26.2168,-96.4998,1022.87,11111222 
TABS,ioos:station:wmo:42045:1,2003-02-05T19:40:00Z,26.2168,-96.4998,1022.8,11111222 
TABS,ioos:station:wmo:42045:1,2003-02-05T20:10:00Z,26.2168,-96.4998,1020.83,11111222 
TABS,ioos:station:wmo:42045:1,2003-02-05T20:40:00Z,26.2168,-96.4998,1018.42,11111222 
TABS,ioos:station:wmo:42045:1,2003-02-05T21:10:00Z,26.2168,-96.4998,1017.22,11111222 
TABS,ioos:station:wmo:42045:1,2003-02-05T21:40:00Z,26.2168,-96.4998,1016.14,11111222 
TABS,ioos:station:wmo:42045:1,2003-02-05T22:10:00Z,26.2168,-96.4998,1015.0,11111222 
TABS,ioos:station:wmo:42045:1,2003-02-05T22:40:00Z,26.2168,-96.4998,1015.57,11111222 
TABS,ioos:station:wmo:42045:1,2003-02-05T23:10:00Z,26.2168,-96.4998,1014.8,11111222 
TABS,ioos:station:wmo:42045:1,2003-02-05T23:40:00Z,26.2168,-96.4998,1013.41,11111222 
TABS,ioos:station:wmo:42045:1,2003-02-06T00:10:00Z,26.2168,-96.4998,1012.84,11111222 
TABS,ioos:station:wmo:42045:1,2003-02-06T00:40:00Z,26.2168,-96.4998,1012.52,11111222 
TABS,ioos:station:wmo:42045:1,2003-02-06T01:10:00Z,26.2168,-96.4998,1012.39,11111222 
TABS,ioos:station:wmo:42045:1,2003-02-06T01:40:00Z,26.2168,-96.4998,1012.46,11111222 
TABS,ioos:station:wmo:42045:1,2003-02-06T02:10:00Z,26.2168,-96.4998,1012.33,11111222 
TABS,ioos:station:wmo:42045:1,2003-02-06T02:40:00Z,26.2168,-96.4998,1012.14,11111222 
TABS,ioos:station:wmo:42045:1,2003-02-06T03:10:00Z,26.2168,-96.4998,1012.14,11111222 
TABS,ioos:station:wmo:42045:1,2003-02-06T03:40:00Z,26.2168,-96.4998,1012.14,11111222 
TABS,ioos:station:wmo:42045:1,2003-02-06T04:10:00Z,26.2168,-96.4998,1012.14,11111222 
TABS,ioos:station:wmo:42045:1,2003-02-06T04:40:00Z,26.2168,-96.4998,1012.01,11111222 
TABS,ioos:station:wmo:42045:1,2003-02-06T05:10:00Z,26.2168,-96.4998,1011.95,11111222 
TABS,ioos:station:wmo:42045:1,2003-02-06T05:40:00Z,26.2168,-96.4998,1012.27,11111222 
TABS,ioos:station:wmo:42045:1,2003-02-06T06:10:00Z,26.2168,-96.4998,1012.46,11111222 
TABS,ioos:station:wmo:42045:1,2003-02-06T06:40:00Z,26.2168,-96.4998,1012.46,11111222 
TABS,ioos:station:wmo:42045:1,2003-02-06T07:10:00Z,26.2168,-96.4998,1012.33,11111222 
TABS,ioos:station:wmo:42045:1,2003-02-06T07:40:00Z,26.2168,-96.4998,1011.95,11111222 
TABS,ioos:station:wmo:42045:1,2003-02-06T08:10:00Z,26.2168,-96.4998,1011.69,11111222 
TABS,ioos:station:wmo:42045:1,2003-02-06T08:40:00Z,26.2168,-96.4998,1012.14,11111222 
TABS,ioos:station:wmo:42045:1,2003-02-06T09:10:00Z,26.2168,-96.4998,1012.46,11111222 
TABS,ioos:station:wmo:42045:1,2003-02-06T09:40:00Z,26.2168,-96.4998,1012.46,11111222 
TABS,ioos:station:wmo:42045:1,2003-02-06T10:10:00Z,26.2168,-96.4998,1012.65,11111222 
TABS,ioos:station:wmo:42045:1,2003-02-06T10:40:00Z,26.2168,-96.4998,1012.65,11111222 
TABS,ioos:station:wmo:42045:1,2003-02-06T11:10:00Z,26.2168,-96.4998,1012.39,11111222 
TABS,ioos:station:wmo:42045:1,2003-02-06T11:40:00Z,26.2168,-96.4998,1012.39,11111222 
TABS,ioos:station:wmo:42045:1,2003-02-06T12:10:00Z,26.2168,-96.4998,1012.2,11111222 
TABS,ioos:station:wmo:42045:1,2003-02-06T12:40:00Z,26.2168,-96.4998,1011.95,11111222 
TABS,ioos:station:wmo:42045:1,2003-02-06T13:10:00Z,26.2168,-96.4998,1011.57,11111222 
TABS,ioos:station:wmo:42045:1,2003-02-06T13:40:00Z,26.2168,-96.4998,1011.76,11111222 
TABS,ioos:station:wmo:42045:1,2003-02-06T14:10:00Z,26.2168,-96.4998,1012.65,11111222 
TABS,ioos:station:wmo:42045:1,2003-02-06T14:40:00Z,26.2168,-96.4998,1014.8,11111222 
TABS,ioos:station:wmo:42045:1,2003-02-06T15:10:00Z,26.2168,-96.4998,1017.41,11111222 
TABS,ioos:station:wmo:42045:1,2003-02-06T15:40:00Z,26.2168,-96.4998,1021.98,11111222 
TABS,ioos:station:wmo:42045:1,2003-02-06T16:10:00Z,26.2168,-96.4998,1028.45,11111222 
TABS,ioos:station:wmo:42045:1,2003-02-06T16:40:00Z,26.2168,-96.4998,1034.8,11111222 
TABS,ioos:station:wmo:42045:1,2003-02-06T17:10:00Z,26.2168,-96.4998,1029.21,11111222 
TABS,ioos:station:wmo:42045:1,2003-02-06T17:40:00Z,26.2168,-96.4998,1022.04,11111222 
TABS,ioos:station:wmo:42045:1,2003-02-06T18:10:00Z,26.2168,-96.4998,1021.6,11111222 
TABS,ioos:station:wmo:42045:1,2003-02-06T18:40:00Z,26.2168,-96.4998,1020.26,11111222 
TABS,ioos:station:wmo:42045:1,2003-02-06T19:10:00Z,26.2168,-96.4998,1014.93,11111222 
TABS,ioos:station:wmo:42045:1,2003-02-06T19:40:00Z,26.2168,-96.4998,1005.28,11111222 
TABS,ioos:station:wmo:42045:1,2003-02-06T20:10:00Z,26.2168,-96.4998,1005.66,11111222 